Probability
0 0 0 0 0 0 0 0 0 0 0 0 0 0 0 1 1 0 2 9 16 23 30 37 41 41 42 43 42 40 38 33 29 24 16 12 10 8 6 6 6 6 5 4
0 0 0 0 0 0 0 0 0 0 0 0 0 0 0 1 2 2 4 10 16 24 32 38 39 39 39 39 38 37 35 32 27 22 17 14 11 9 7 6 6 6 5 6
0 0 0 0 0 0 0 0 0 0 0 0 0 0 0 1 1 3 8 12 15 21 28 34 37 39 36 32 29 29 28 26 23 20 18 15 12 10 7 6 6 7 6 6
0 0 0 0 0 0 0 0 0 0 0 0 0 0 0 0 1 4 10 12 12 14 18 26 33 37 35 25 19 20 20 19 18 18 17 13 10 9 6 5 7 8 7 6
0 0 0 0 0 0 0 0 0 0 0 0 0 0 0 0 0 4 8 9 10 11 14 19 27 32 30 20 13 14 14 14 14 14 14 12 9 8 6 5 6 8 9 9
0 0 0 0 0 0 0 0 0 0 0 0 0 0 0 0 0 2 5 7 9 13 15 17 21 25 25 18 13 12 11 10 9 10 11 11 10 9 7 6 5 6 9 10
0 0 0 0 0 0 0 0 0 0 0 0 0 0 0 0 0 1 3 5 8 13 16 16 16 18 19 17 14 12 10 7 6 6 8 10 11 10 8 7 5 5 6 7
0 0 0 0 0 0 0 0 0 0 0 0 0 0 0 0 0 1 2 4 7 11 13 12 12 12 12 11 10 9 8 7 6 6 6 9 9 9 7 7 6 6 6 6
0 0 0 0 0 0 0 0 0 0 0 0 0 0 0 0 0 1 1 3 6 9 10 9 9 9 8 6 5 6 7 8 8 8 7 7 7 6 6 6 6 7 7 7
0 0 0 0 0 0 0 0 0 0 0 0 0 0 0 0 0 0 1 3 5 6 7 7 7 8 7 5 5 6 8 9 10 8 6 5 5 5 5 5 5 6 6 7
0 0 0 0 0 0 0 0 0 0 0 0 0 0 0 0 0 0 1 3 5 5 5 6 5 5 6 5 6 7 8 9 9 7 5 4 4 4 3 3 3 5 6 7
0 0 0 0 0 0 0 0 0 0 0 0 0 0 0 0 1 1 3 7 8 7 7 7 5 3 3 4 6 6 6 7 8 7 5 5 5 3 3 3 2 4 5 6
0 0 0 0 0 0 0 0 0 0 0 0 0 0 0 1 3 5 7 10 12 12 11 11 10 7 5 5 5 5 5 6 8 8 8 8 7 5 4 3 4 4 4 4
0 0 0 0 0 0 0 0 0 0 0 0 0 0 1 3 6 9 11 11 15 17 16 16 16 15 12 9 6 4 3 4 6 8 9 10 10 7 5 5 6 6 6 5
0 0 0 0 0 0 0 0 0 0 0 0 1 2 6 11 13 14 14 13 17 21 21 21 21 20 18 13 9 5 3 3 4 5 7 8 9 9 8 7 8 8 9 10
0 0 0 0 0 0 0 0 0 0 0 0 1 5 12 18 21 21 19 18 20 23 23 22 21 19 16 12 10 7 5 4 4 4 4 6 8 10 11 12 10 10 12 14
0 0 0 0 0 0 0 0 0 0 1 2 5 9 16 22 25 26 24 22 23 24 25 23 19 15 11 9 10 9 8 7 7 7 6 6 8 10 12 14 14 14 15 17
0 0 0 0 0 0 1 1 0 1 2 5 10 15 19 24 26 26 25 24 23 24 25 23 20 16 12 9 9 10 11 11 11 11 10 10 11 11 12 16 18 18 19 20
0 0 0 0 0 1 2 2 1 2 3 8 15 20 22 22 22 21 23 24 23 22 22 22 22 21 17 11 8 10 11 12 13 14 15 16 17 17 17 19 21 20 21 22
1 1 1 0 0 1 2 2 2 3 5 11 18 23 24 21 21 22 22 22 22 22 21 21 22 24 21 15 11 11 12 13 14 15 16 19 22 22 23 23 22 20 20 22
1 1 1 0 0 0 1 3 5 9 13 18 23 27 28 27 26 25 22 21 22 21 21 20 21 23 22 19 17 16 16 16 15 16 18 20 21 23 24 24 23 21 20 21
2 2 1 1 0 1 3 8 14 20 25 27 30 32 32 29 25 22 20 19 19 18 17 17 18 20 20 19 18 18 18 18 16 17 19 22 22 23 24 24 24 22 20 19
5 4 3 3 2 3 7 15 22 27 29 29 30 32 29 23 20 18 16 15 15 14 13 12 13 14 15 14 14 14 15 16 17 17 19 22 23 21 20 20 20 19 17 14
4 5 5 5 5 5 9 16 23 25 25 25 26 26 23 19 17 15 13 11 10 10 9 8 8 7 8 8 10 11 12 14 16 16 17 18 18 15 12 11 12 12 10 9
5 6 7 7 6 6 9 16 21 22 21 22 24 22 19 17 14 10 8 7 6 5 6 6 5 4 4 5 7 9 10 11 13 13 12 12 10 7 6 5 5 5 6 5
6 8 9 8 7 8 11 16 20 20 18 20 22 20 17 15 10 6 5 5 4 4 4 4 4 4 3 4 5 7 8 8 9 10 10 8 4 3 2 3 3 3 4 4
Wind_Speed
11 12 13 12 12 7 4 6 5 3 2 6 6 5 2 2 4 5 6 7 8 9 10 11 11 11 11 12 13 13 13 13 11 8 9 8 8 7 6 6 7 8 8 7
10 15 14 7 7 9 9 9 8 4 1 6 5 6 2 2 3 3 5 6 8 9 10 11 11 11 11 12 13 13 13 13 12 9 8 6 6 7 6 6 7 8 8 8
16 4 8 11 11 11 11 11 7 4 4 6 7 8 5 4 3 4 5 6 7 9 11 11 11 11 11 11 12 11 11 12 12 11 8 7 5 5 6 7 7 8 8 8
15 7 8 13 14 13 11 8 7 6 8 5 4 7 4 4 5 5 5 6 7 9 10 11 11 11 11 10 10 10 10 11 11 11 10 12 9 9 8 7 7 8 9 9
11 12 12 13 13 13 7 3 6 7 8 8 7 9 3 5 5 4 5 6 6 8 9 10 11 11 10 10 10 10 10 11 11 12 12 11 10 8 7 7 8 9 8 9
8 8 11 12 10 12 7 6 5 7 9 10 7 8 4 2 1 2 4 5 6 7 8 9 9 10 9 9 9 10 10 11 11 12 12 12 12 10 10 10 9 9 7 7
12 12 10 9 11 12 12 10 8 10 9 8 4 7 3 2 1 0 3 5 6 7 9 9 10 10 10 10 10 9 10 10 10 11 11 12 12 12 12 11 10 9 7 7
15 14 15 13 14 12 16 15 10 7 7 6 7 7 2 4 3 2 4 6 7 8 9 9 9 9 9 10 9 9 10 9 10 10 10 10 11 9 8 10 8 8 7 7
12 11 12 14 14 13 14 15 14 9 7 7 5 4 4 5 5 5 6 7 8 8 9 9 9 9 9 9 9 9 9 9 10 10 10 9 9 9 8 8 8 7 6 6
8 9 10 11 10 13 12 12 9 10 8 9 7 8 4 6 6 7 7 7 8 9 9 8 8 8 7 8 8 8 9 8 8 9 9 8 8 8 8 7 8 7 7 7
12 9 10 12 14 16 13 13 11 11 9 8 6 4 3 3 4 6 7 8 9 9 9 8 7 7 7 7 7 8 8 8 7 8 8 8 8 8 8 7 8 8 8 8
14 10 10 11 6 7 15 15 14 11 9 9 8 2 7 3 4 5 6 7 8 9 8 8 8 7 7 7 7 7 8 8 8 8 8 8 8 8 8 8 8 8 8 8
12 9 11 11 10 9 11 13 14 14 10 9 10 4 7 5 5 5 6 7 9 9 8 8 8 7 6 6 6 6 7 7 8 8 8 8 7 7 7 7 8 8 7 7
9 10 13 12 11 14 14 13 14 14 10 10 10 4 7 6 5 6 7 8 9 9 8 7 7 6 6 5 5 5 5 6 6 7 8 8 8 7 7 7 7 7 7 7
8 11 12 9 5 9 13 14 15 15 13 11 8 7 4 4 4 5 6 8 9 9 8 7 6 6 6 5 5 5 5 6 6 7 7 7 7 7 6 6 6 6 6 6
6 8 10 10 9 10 10 11 13 13 12 10 7 4 5 5 5 5 6 7 8 8 7 7 6 6 6 6 5 5 5 6 6 6 7 6 6 7 6 6 6 5 6 6
7 8 10 11 11 11 13 11 12 11 9 10 9 5 8 7 6 5 5 6 7 7 6 6 5 5 4 4 5 5 5 6 6 6 6 6 6 6 6 6 6 5 5 5
6 8 8 8 10 15 5 3 7 8 6 5 3 6 7 7 7 6 5 5 6 6 6 5 4 4 4 4 4 4 5 5 6 5 5 5 6 6 6 6 5 5 4 4
7 7 7 9 13 11 6 6 7 8 7 5 6 8 8 9 9 7 5 5 5 5 5 4 3 4 4 3 4 4 5 5 5 5 5 6 6 6 6 6 5 5 5 4
8 8 8 9 12 12 7 8 4 6 8 7 7 9 9 8 6 6 6 6 6 5 5 4 4 5 4 3 3 4 5 5 5 5 4 4 5 5 6 6 5 5 5 5
11 9 11 11 10 5 6 6 7 10 4 8 7 7 7 2 5 8 7 6 6 6 6 5 5 5 4 3 3 4 4 3 3 4 4 4 5 5 6 6 5 5 6 7
9 10 10 10 11 6 6 7 5 3 5 6 7 6 6 8 9 8 7 6 6 6 6 5 5 5 4 4 4 4 4 3 3 4 5 5 5 5 6 7 6 6 6 8
4 3 3 2 0 6 3 3 4 2 4 5 6 7 8 8 8 8 7 6 6 6 5 5 6 6 5 5 4 5 4 4 5 6 6 6 7 7 7 7 7 6 5 6
3 1 2 2 3 4 3 4 3 3 4 4 5 7 8 8 8 8 7 6 6 6 6 5 6 6 6 6 6 6 5 6 7 8 8 8 9 9 8 6 5 5 5 6
2 3 4 4 4 4 3 3 4 4 5 6 7 7 8 9 8 8 7 6 6 6 6 6 6 6 6 6 6 6 6 8 9 9 9 9 9 10 10 11 10 9 9 7
3 3 4 2 4 3 5 4 4 5 7 8 8 9 8 9 9 9 7 7 6 6 6 6 7 7 7 8 7 7 6 8 10 10 9 8 9 9 10 11 13 20 17 20
Wind_Direction
191 214 218 217 225 262 269 258 244 238 322 282 266 276 279 183 203 191 186 180 180 179 173 170 172 175 176 178 181 184 185 180 178 181 184 184 186 187 190 194 189 193 194 188
194 224 227 225 219 233 238 245 241 218 220 280 279 273 240 187 196 196 189 183 180 170 166 168 171 173 178 180 184 185 185 181 183 184 185 187 185 191 190 192 187 196 194 193
214 211 209 205 206 218 229 241 248 261 274 232 266 240 201 164 173 181 189 188 181 175 173 171 173 176 180 184 187 188 185 184 186 183 179 177 179 190 189 192 190 196 198 198
227 195 190 204 212 218 227 229 245 252 259 227 256 267 186 178 190 187 187 187 184 177 175 172 174 177 181 185 183 185 189 185 183 184 188 187 192 194 195 192 187 192 198 201
209 206 202 210 212 213 228 204 229 244 251 262 226 260 216 174 218 189 178 183 183 178 174 172 174 173 175 180 180 181 185 186 184 187 190 194 200 198 193 194 190 196 194 202
212 196 217 222 212 208 196 191 210 234 240 241 234 255 248 172 225 154 158 168 171 168 164 165 164 164 168 172 177 179 182 188 186 187 191 199 202 199 194 194 192 196 191 196
205 204 202 207 193 189 201 208 209 210 217 229 177 245 261 67 55 326 166 159 159 160 160 161 161 164 168 173 177 178 181 185 187 191 195 200 203 201 199 196 196 198 192 192
201 203 198 202 209 190 204 218 232 235 228 199 178 234 160 103 103 130 145 146 151 155 157 161 162 166 170 173 175 176 181 184 187 192 196 199 202 202 198 199 197 195 197 197
205 206 183 201 212 219 205 221 240 254 260 258 206 201 180 153 158 148 144 146 149 153 155 157 161 168 172 173 174 174 175 179 184 188 188 192 198 199 195 193 199 196 197 194
216 206 181 181 197 217 234 218 217 236 236 239 224 222 211 173 167 156 157 156 151 150 152 152 159 163 166 169 170 173 172 176 183 185 186 185 190 192 191 190 194 196 196 197
222 211 175 181 199 190 199 211 217 228 241 249 236 200 118 164 166 166 162 159 155 154 152 150 152 152 155 160 162 170 170 172 176 181 185 183 184 185 187 189 194 195 195 195
212 222 200 189 179 217 205 209 208 217 218 242 265 158 104 129 150 156 155 151 151 150 147 145 146 146 152 159 161 166 172 174 176 178 181 181 183 182 183 187 193 193 193 197
189 210 203 187 185 195 215 217 219 226 227 230 242 189 123 137 145 147 149 147 147 148 147 146 146 149 150 154 158 164 171 173 173 172 177 179 184 184 186 189 193 193 194 199
203 213 224 214 200 187 199 205 216 221 227 226 237 219 156 156 155 149 146 149 149 150 151 151 149 150 149 152 156 164 167 169 173 173 175 179 186 188 189 189 191 191 193 195
213 214 222 241 225 201 203 202 205 220 234 241 228 227 186 151 154 147 147 150 151 150 153 154 153 149 155 155 160 171 169 170 175 178 181 183 184 185 186 186 188 186 189 192
216 224 210 214 210 212 211 209 207 216 229 236 234 201 108 119 133 139 147 151 151 149 150 148 150 153 160 165 170 172 174 172 174 182 186 183 183 183 184 184 181 180 184 187
197 206 210 209 197 205 211 207 206 208 220 230 224 163 138 141 132 127 135 142 141 137 137 141 143 151 158 168 173 177 175 170 174 184 188 183 182 179 179 178 175 180 183 183
215 215 219 208 193 218 187 173 211 205 202 212 152 129 135 119 109 97 103 123 127 127 124 119 123 136 147 157 168 174 172 173 172 178 180 176 179 177 174 174 173 171 168 164
211 217 223 213 213 208 154 172 192 198 192 185 159 137 129 127 127 107 90 99 107 111 108 104 108 118 128 140 155 162 163 163 165 172 176 176 175 172 168 166 161 155 151 145
185 219 229 222 231 220 178 155 185 215 197 164 161 152 151 172 185 118 104 98 95 96 98 98 101 104 106 118 139 151 151 155 162 165 168 167 163 162 159 152 142 137 131 124
187 201 221 221 228 217 101 137 182 215 169 139 152 155 162 146 59 102 107 95 93 94 93 92 92 91 90 94 118 130 132 139 145 145 143 140 138 138 136 130 126 127 123 116
209 203 210 221 228 199 126 172 200 61 87 131 138 135 124 106 107 111 107 101 95 96 95 95 91 82 74 80 97 109 109 108 118 125 126 128 127 126 123 118 115 117 120 116
242 287 241 246 251 71 98 82 60 80 107 120 129 128 130 129 124 118 111 102 95 93 90 92 90 79 67 66 81 90 88 97 107 109 107 107 102 99 103 109 114 116 117 115
165 220 224 180 135 115 107 99 89 97 108 115 126 131 136 132 128 121 109 98 91 89 89 91 91 83 69 64 73 82 91 99 103 102 99 97 97 92 86 86 88 95 105 113
184 196 201 188 156 152 140 112 98 103 108 113 116 124 129 128 125 117 108 101 92 87 83 86 87 84 77 73 72 76 91 103 101 98 96 94 88 87 79 69 54 61 55 63
208 223 236 190 159 173 130 119 117 117 116 117 119 117 116 119 119 113 106 99 95 93 93 89 88 86 83 80 76 76 89 105 108 103 97 94 95 94 95 94 79 59 64 62